Dayton, OH

8:58 AM EDT on July 21, 2017 (GMT -0400)
Cox-Dayton International

Weather History for KDAY - October, 2013

Change the Weather History Date:

Thursday, October 24, 2013

  Actual Average Record
Temperature  
Mean Temperature 40 °F 51 °F  
Max Temperature 44 °F 61 °F 82 °F (1899)
Min Temperature 35 °F 42 °F 23 °F (1981)
Degree Days  
Heating Degree Days 25 14  
Month to date heating degree days 200 252  
Since 1 July heating degree days 267 342  
Cooling Degree Days 0 0  
Month to date cooling degree days 35 10  
Year to date cooling degree days 1062 891  
Moisture  
Dew Point 31 °F    
Average Humidity 74    
Maximum Humidity 85    
Minimum Humidity 62    
Precipitation  
Precipitation 0.02 in 0.09 in 1.26 in (2001)
Month to date precipitation 4.45 2.27  
Year to date precipitation 29.06 33.88  
Snow  
Snow T in 0.00 in - ()
Month to date snowfall 1.0 0.1  
Since 1 July snowfall 1.0 0.1  
Since 1 September snowfall 1.0 0.1  
Snow Depth 0.00 in    
Sea Level Pressure  
Sea Level Pressure 30.13 in    
Wind  
Wind Speed 10 mph (West)    
Max Wind Speed 16 mph    
Max Gust Speed 20 mph    
Visibility 10 miles    
Events Snow    
T = Trace of Precipitation, MM = Missing Value Source: NWS Daily Summary

Daily Weather History Graph

Daily Weather History Graph

Search for Another Location

Airport or City:

Trip Planner

Search our weather history database for the weather conditions in past years. The results will help you decide how hot, cold, wet, or windy it might be!

Date:

Astronomy

Oct. 24, 2013 Rise Set
Actual Time 7:57 AM EDT 6:44 PM EDT
Civil Twilight 7:29 AM EDT 7:11 PM EDT
Nautical Twilight 6:57 AM EDT 7:43 PM EDT
Astronomical Twilight 6:26 AM EDT 8:14 PM EDT
Moon 11:08 PM EDT (10/24) 12:57 PM EDT (10/24)
Length of Visible Light 11h 42m
Length of Day
10h 47m
Waning Gibbous, 71% of the Moon is Illuminated
Oct 24
Waning Gibbous
Oct 26
Last Quarter
Nov 3
New
Nov 10
First Quarter
Nov 17
Full

Hourly Weather History & Observations

Time (EDT) Temp. Windchill Dew Point Humidity Pressure Visibility Wind Dir Wind Speed Gust Speed Precip Events Conditions
12:56 AM 39.0 °F 32.8 °F 32.0 °F 76% 30.04 in 10.0 mi West 9.2 mph - N/A   Overcast
1:56 AM 37.9 °F 32.1 °F 32.0 °F 79% 30.05 in 10.0 mi West 8.1 mph - N/A   Overcast
2:56 AM 37.9 °F 30.9 °F 30.9 °F 76% 30.05 in 10.0 mi West 10.4 mph - N/A   Overcast
3:56 AM 37.9 °F 31.5 °F 30.9 °F 76% 30.05 in 10.0 mi West 9.2 mph - N/A   Overcast
4:56 AM 37.9 °F 31.5 °F 30.9 °F 76% 30.05 in 10.0 mi WSW 9.2 mph - N/A   Overcast
5:56 AM 37.9 °F 29.6 °F 30.9 °F 76% 30.06 in 10.0 mi West 13.8 mph - N/A   Overcast
6:56 AM 37.9 °F 31.5 °F 30.9 °F 76% 30.07 in 10.0 mi West 9.2 mph - N/A   Overcast
7:56 AM 37.9 °F 30.5 °F 30.9 °F 76% 30.08 in 10.0 mi WSW 11.5 mph - N/A   Overcast
8:56 AM 37.9 °F 31.5 °F 32.0 °F 79% 30.10 in 10.0 mi WSW 9.2 mph - N/A   Mostly Cloudy
9:56 AM 39.0 °F 32.8 °F 33.1 °F 79% 30.12 in 10.0 mi WSW 9.2 mph - N/A   Mostly Cloudy
10:56 AM 41.0 °F 32.8 °F 32.0 °F 70% 30.12 in 10.0 mi WSW 16.1 mph - N/A   Overcast
11:56 AM 41.0 °F 33.5 °F 32.0 °F 70% 30.14 in 10.0 mi WSW 13.8 mph - N/A   Overcast
12:31 PM 41.0 °F 34.3 °F 32.0 °F 70% 30.12 in 10.0 mi West 11.5 mph - N/A   Overcast
12:56 PM 43.0 °F 36.8 °F 30.9 °F 62% 30.14 in 10.0 mi West 11.5 mph - N/A   Overcast
1:56 PM 42.1 °F 35.7 °F 32.0 °F 67% 30.13 in 10.0 mi SW 11.5 mph - N/A   Overcast
2:56 PM 42.1 °F 34.9 °F 34.0 °F 73% 30.13 in 10.0 mi WSW 13.8 mph - N/A   Overcast
3:12 PM 41.0 °F 33.5 °F 32.0 °F 70% 30.12 in 10.0 mi NNW 13.8 mph - N/A   Overcast
3:25 PM 37.4 °F 31.4 °F 30.2 °F 75% 30.12 in 1.8 mi NW 8.1 mph - 0.01 in Snow Light Snow
3:32 PM 37.4 °F 32.8 °F 32.0 °F 81% 30.13 in 3.0 mi WNW 5.8 mph - 0.02 in Snow Light Snow
3:51 PM 37.4 °F 32.8 °F 33.8 °F 87% 30.13 in 10.0 mi SW 5.8 mph - 0.02 in   Overcast
3:56 PM 37.9 °F 32.7 °F 34.0 °F 86% 30.15 in 10.0 mi SSW 6.9 mph - 0.02 in   Overcast
4:56 PM 42.1 °F 37.1 °F 32.0 °F 67% 30.16 in 10.0 mi SW 8.1 mph - N/A   Overcast
5:56 PM 42.1 °F 39.2 °F 33.1 °F 70% 30.17 in 10.0 mi West 4.6 mph - N/A   Overcast
6:56 PM 41.0 °F 38.0 °F 30.0 °F 65% 30.20 in 10.0 mi WNW 4.6 mph - N/A   Overcast
7:56 PM 39.9 °F 35.8 °F 30.0 °F 68% 30.22 in 10.0 mi WNW 5.8 mph - N/A   Overcast
8:56 PM 39.0 °F 32.8 °F 30.0 °F 70% 30.23 in 10.0 mi West 9.2 mph - N/A   Overcast
9:56 PM 37.9 °F 31.5 °F 28.9 °F 70% 30.25 in 10.0 mi WNW 9.2 mph - N/A   Overcast
10:56 PM 37.9 °F 30.9 °F 28.9 °F 70% 30.27 in 10.0 mi WNW 10.4 mph - N/A   Overcast
11:56 PM 36.0 °F 29.6 °F 28.0 °F 73% 30.27 in 10.0 mi WNW 8.1 mph - N/A   Mostly Cloudy